Location: Consuma
(43.7833°N, 11.5833°E)
Time: 15:29:18
(UTC+00:00)

Cosmos 1633 - Pass Details

Date: 17 February 2020
Orbit: 464 x 482 km, 82.5° (Epoch: 28 March)

Event Time Altitude Azimuth Distance (km) Brightness Sun altitude
Rises 05:30:03 0° 341° (NNW) 2,555 5.9 -8.0°
Reaches altitude 10° 05:32:18 10° 331° (NNW) 1,671 4.9 -7.6°
Maximum altitude 05:35:33 30° 269° (W) 883 3.3 -7.0°
Drops below altitude 10° 05:38:45 10° 206° (SSW) 1,657 5.1 -6.4°
Sets 05:41:00 0° 196° (SSW) 2,530 6.2 -6.0°
